This is the latest recevied weather packets stored in our database for station/object N8QF-1. If no packets are shown the sender has not sent any weather packets the latest 10 day(s).
| Time | Temp. | Humidity | Pressure | Rain* | Wind** | Luminosity | Snow |
|---|---|---|---|---|---|---|---|
| 1777736202 | 8.89° C | 44% | 1018.7 hPa | 0 mm | - | - | - |
| 1777735902 | 8.89° C | 44% | 1018.7 hPa | 0 mm | - | - | - |
| 1777735601 | 8.89° C | 44% | 1018.7 hPa | 0 mm | - | - | - |
| 1777735301 | 8.33° C | 43% | 1018.7 hPa | 0 mm | - | - | - |
| 1777735000 | 8.33° C | 46% | 1018.7 hPa | 0 mm | - | - | - |
| 1777734700 | 8.33° C | 46% | 1018.7 hPa | 0 mm | - | - | - |
| 1777734099 | 7.78° C | 45% | 1018.7 hPa | 0 mm | - | - | - |
| 1777733798 | 8.33° C | 43% | 1018.7 hPa | 0 mm | - | - | - |
| 1777733498 | 8.33° C | 46% | 1018.6 hPa | 0 mm | - | - | - |
| 1777733197 | 8.33° C | 49% | 1018.6 hPa | 0 mm | - | - | - |
| 1777732897 | 7.78° C | 48% | 1018.6 hPa | 0 mm | - | - | - |
| 1777732295 | 8.33° C | 50% | 1018.7 hPa | 0 mm | - | - | - |
| 1777731994 | 7.78° C | 49% | 1018.7 hPa | 0 mm | - | - | - |
| 1777731694 | 7.78° C | 49% | 1018.7 hPa | 0 mm | - | - | - |
| 1777731393 | 7.78° C | 52% | 1018.6 hPa | 0 mm | - | - | - |
| 1777731093 | 7.22° C | 51% | 1018.6 hPa | 0 mm | - | - | - |
| 1777730792 | 7.78° C | 52% | 1018.6 hPa | 0 mm | - | - | - |
| 1777730492 | 7.22° C | 52% | 1018.6 hPa | 0 mm | - | - | - |
| 1777730191 | 7.22° C | 51% | 1018.4 hPa | 0 mm | - | - | - |
| 1777729890 | 7.22° C | 51% | 1018.4 hPa | 0 mm | - | - | - |
| 1777729590 | 6.67° C | 51% | 1018.6 hPa | 0 mm | - | - | - |
| 1777728989 | 6.67° C | 53% | 1018.7 hPa | 0 mm | - | - | - |
| 1777728688 | 6.67° C | 53% | 1018.6 hPa | 0 mm | - | - | - |
| 1777728388 | 6.67° C | 55% | 1018.6 hPa | 0 mm | - | - | - |
| 1777727787 | 6.11° C | 57% | 1018.6 hPa | 0 mm | - | - | - |
* Rain latest hour (hover to see other rain measurements)
** Current wind speed in m/s (hover to see current wind gust speed)